Home   Weather   Helmstedt   Past weeks

Flag for Germany Past Weather in Helmstedt, Lower Saxony, Germany — Yesterday and Last 2 Weeks

Now
28 °F

Scattered clouds.


Feels Like: 22 °F
Forecast: 23 / 34 °F
Wind: 6 mph from Southwest

Location: Braunschweig Wolfsburg

Current Time: Dec 6, 2016 at 9:22:45 am

Latest Report: Dec 6, 2016 at 8:50 am


Visibility: N/A

Pressure: 30.45 "Hg

Humidity: 86%

Dew Point: 25 °F

Location of HelmstedtLocation

Past Weather in Helmstedt — Graph

°F

Helmstedt Temperature Yesterday

Maximum temperature yesterday: 39 °F (at 1:50 pm)
Minimum temperature yesterday: 19 °F (at 6:50 am)
Average temperature yesterday: 31 °F

High & Low Weather Summary for the Past Weeks

 TemperatureHumidityPressure
High57 °F (Nov 21, 10:50 am)100% (Nov 23, 6:50 pm)30.57 "Hg (Nov 23, 6:50 pm)
Low19 °F (Nov 29, 7:20 am)51% (Nov 21, 11:20 am)29.62 "Hg (Nov 21, 3:20 pm)
Average38 °F82%30.19 "Hg
* Reported Nov 21 7:20 am — Dec 6 7:50 am, Helmstedt, Weather by CustomWeather, © 2016

Note: Actual official high and low records may vary slightly from our data, if they occured in-between our weather recording intervals... More about our weather records

Advertising

Helmstedt Weather History for the Previous 24 Hours

Scroll right to see more
 ConditionsComfort  
Time TempWeatherWind HumidityBarometerVisibility
7:50 am
Tue, Dec 6
25 °FPassing clouds.5 mph93%30.42 "HgN/A
7:20 am23 °FOvercast.6 mph93%30.42 "HgN/A
6:50 am21 °FOvercast.2 mph93%30.39 "HgN/A
9:50 pm
Mon, Dec 5
28 °FClear.2 mph80%30.33 "Hg10 mi
9:20 pm27 °FClear.2 mph80%30.33 "Hg10 mi
8:50 pm28 °FClear.1 mph86%30.33 "Hg10 mi
8:20 pm30 °FClear.1 mph80%30.33 "Hg10 mi
7:50 pm28 °FClear.No wind80%30.33 "Hg10 mi
7:20 pm30 °FClear.3 mph75%30.30 "Hg10 mi
6:50 pm32 °FClear.No wind75%30.30 "Hg10 mi
6:20 pm32 °FClear.3 mph69%30.30 "Hg10 mi
5:50 pm32 °FClear.2 mph69%30.30 "Hg10 mi
5:20 pm34 °FClear.1 mph65%30.30 "Hg10 mi
4:50 pm34 °FClear.2 mph65%30.30 "Hg10 mi
4:20 pm34 °FClear.5 mph65%30.30 "Hg10 mi
3:50 pm37 °FSunny.3 mph60%30.30 "Hg10 mi
3:20 pm37 °FSunny.6 mph60%30.30 "Hg10 mi
2:50 pm39 °FSunny.6 mph56%30.30 "Hg10 mi
2:20 pm39 °FSunny.10 mph52%30.30 "Hg10 mi
1:50 pm39 °FPassing clouds.7 mph52%30.30 "HgN/A
1:20 pm37 °FPassing clouds.6 mph60%30.30 "HgN/A
12:50 pm37 °FSunny.2 mph65%30.30 "Hg10 mi
12:20 pm34 °FSunny.No wind75%30.30 "Hg10 mi
11:50 am32 °FSunny.No wind80%30.33 "Hg10 mi
11:20 am30 °FSunny.3 mph86%30.33 "Hg10 mi
10:50 am30 °FSunny.3 mph93%30.33 "Hg10 mi
10:20 am27 °FSunny.2 mph93%30.33 "Hg10 mi
9:50 am25 °FSunny.3 mph93%30.33 "Hg10 mi
9:20 am23 °FSunny.3 mph93%30.33 "Hg10 mi
Weather by CustomWeather, © 2016

See weather overviewHow to use our weather pages